Flag Weather past 2 weeks in Garden Grove, California, U.S.A.

Now
56 °F

Clear.


Feels Like: 56 °F
Forecast: 53 / 71 °F
Wind: No wind

Location: Fullerton Municipal Airport

Current Time: Nov 29, 2014 at 12:01:54 AM

Latest Report: Nov 28, 2014 at 10:53 PM


Visibility: 10 mi

Pressure: 29.88 "Hg

Humidity: 51%

Dew point: 38 °F

Location of Garden GroveLocation

Historic Weather in Garden Grove — Graph

°F

Garden Grove temperature yesterday

Maximum temperature yesterday: 80 °F (at 12:53 PM)
Minimum temperature yesterday: 50 °F (at 5:53 AM)
Average temperature yesterday: 64 °F

Past Weeks' High & Low Weather Summary

 TemperatureHumidityPressure
High91 °F (Nov 27, 1:53 PM)93% (Nov 23, 4:53 AM)30.37 "Hg (Nov 23, 4:53 AM)
Low48 °F (Nov 24, 5:53 AM)3% (Nov 16, 2:53 PM)29.87 "Hg (Nov 28, 3:53 PM)
Average64 °F46%30.08 "Hg
* Reported Nov 13 10:04 PM — Nov 28 10:53 PM, Garden Grove, Weather by CustomWeather, © 2014

Note: Actual official high and low records may vary slightly from our data, if they occured in-between our weather recording intervals... More about our weather records

Advertising

Garden Grove weather history for previous 24 hours

 ConditionsComfort  
Time TempWeatherWind HumidityBarometerVisibility
10:53 PM
Nov 28
56 °FClear.No wind51%29.88 "Hg10 mi
9:53 PM58 °FClear.No wind51%29.89 "Hg10 mi
8:53 PM59 °FClear.No wind64%29.89 "Hg10 mi
7:53 PM60 °FClear.No wind65%29.89 "Hg10 mi
6:53 PM63 °FClear.No wind58%29.89 "Hg10 mi
5:53 PM67 °FClear.No wind53%29.88 "Hg10 mi
4:53 PM72 °FClear.3 mph29%29.87 "Hg10 mi
3:53 PM77 °FSunny.5 mph20%29.87 "Hg10 mi
2:53 PM80 °FSunny.5 mph19%29.88 "Hg10 mi
1:53 PM80 °FSunny.5 mph19%29.89 "Hg10 mi
12:53 PM80 °FSunny.6 mph20%29.91 "Hg10 mi
11:53 AM79 °FSunny.3 mph19%29.94 "Hg10 mi
10:53 AM76 °FSunny.3 mph18%29.97 "Hg10 mi
9:53 AM69 °FSunny.No wind22%29.99 "Hg10 mi
8:53 AM67 °FSunny.3 mph24%29.99 "Hg10 mi
7:53 AM57 °FSunny.No wind44%29.98 "Hg10 mi
6:53 AM53 °FSunny.5 mph41%29.97 "Hg10 mi
5:53 AM50 °FClear.No wind61%29.97 "Hg10 mi
4:53 AM51 °FClear.No wind54%29.96 "Hg10 mi
3:53 AM54 °FClear.3 mph47%29.97 "Hg10 mi
2:53 AM54 °FClear.3 mph49%29.98 "Hg10 mi
1:53 AM53 °FClear.No wind61%29.98 "Hg10 mi
12:53 AM54 °FClear.No wind62%29.98 "Hg10 mi
Weather by CustomWeather, © 2014

See weather overviewHow to use our weather pages